FWG117 EDDC-EDDN

Flight info

Callsign FWG117
Flight time N/A
Altitude 30000
Route ABKIS4E ABKIS Z715 KULOK/N0472F290 Q244 NIBIL/N0427F230 Q244 PIVIR PIVIR1V
Aircraft A320/M-SDE3FGHIRWY/LB1

Departure

Time 2026-05-05 12:44
Airport Dresden Airport (EDDC)

Arrival

Time N/A
Airport Nuremberg Airport (EDDN)
Time Latitude Longitude Altitude Speed Heading
2026-05-05 12:33 51.12888 13.76652 754 ft 0 kts 311°
2026-05-05 12:34 51.12888 13.76653 753 ft 0 kts 311°
2026-05-05 12:41 51.12890 13.76650 753 ft 3 kts 311°
2026-05-05 12:41 51.12904 13.76601 751 ft 6 kts 273°
2026-05-05 12:41 51.12886 13.76530 752 ft 8 kts 230°
2026-05-05 12:41 51.12845 13.76468 754 ft 8 kts 222°
2026-05-05 12:42 51.12784 13.76382 752 ft 14 kts 221°
2026-05-05 12:42 51.12711 13.76283 752 ft 14 kts 220°
2026-05-05 12:42 51.12638 13.76183 758 ft 14 kts 221°
2026-05-05 12:42 51.12601 13.76055 760 ft 12 kts 270°
2026-05-05 12:43 51.12635 13.75940 762 ft 12 kts 306°
2026-05-05 12:43 51.12684 13.75826 763 ft 13 kts 306°
2026-05-05 12:43 51.12761 13.75869 762 ft 15 kts 43°
2026-05-05 12:43 51.13007 13.76209 756 ft 90 kts 40°
2026-05-05 12:44 51.13672 13.77126 731 ft 162 kts 40°
2026-05-05 12:44 51.14650 13.78519 988 ft 199 kts 40°
2026-05-05 12:44 51.15697 13.80041 1836 ft 208 kts 40°
2026-05-05 12:44 51.16776 13.81548 3069 ft 208 kts 41°
2026-05-05 12:45 51.17880 13.83065 4032 ft 215 kts 40°
2026-05-05 12:45 51.19062 13.84681 4741 ft 235 kts 41°
2026-05-05 12:45 51.19957 13.86416 5416 ft 247 kts 66°
2026-05-05 12:45 51.20234 13.89106 6342 ft 255 kts 92°
2026-05-05 12:46 51.19978 13.91924 7283 ft 260 kts 112°
2026-05-05 12:46 51.18990 13.94315 8247 ft 260 kts 138°
2026-05-05 12:46 51.17639 13.96247 9275 ft 263 kts 140°
2026-05-05 12:46 51.16317 13.98283 10265 ft 266 kts 138°
2026-05-05 12:47 51.15015 14.00399 11179 ft 270 kts 137°
2026-05-05 12:47 51.13710 14.02566 12075 ft 274 kts 137°
2026-05-05 12:47 51.12379 14.04789 12982 ft 278 kts 137°
2026-05-05 12:47 51.11021 14.07018 13823 ft 282 kts 141°
2026-05-05 12:48 51.09429 14.08839 14588 ft 282 kts 156°
2026-05-05 12:48 51.07599 14.09930 15348 ft 281 kts 171°
2026-05-05 12:48 51.05657 14.10239 16128 ft 281 kts 185°
2026-05-05 12:48 51.03728 14.09763 16908 ft 281 kts 199°
2026-05-05 12:49 51.01912 14.08532 17312 ft 292 kts 213°
2026-05-05 12:49 51.00277 14.06463 17456 ft 310 kts 225°
2026-05-05 12:49 50.98689 14.03988 17597 ft 329 kts 225°
2026-05-05 12:49 50.97000 14.01385 17733 ft 347 kts 225°
2026-05-05 12:50 50.95221 13.98663 17870 ft 365 kts 224°
2026-05-05 12:50 50.93373 13.95845 18062 ft 379 kts 224°
2026-05-05 12:50 50.91427 13.92884 18544 ft 385 kts 224°
2026-05-05 12:50 50.89510 13.89979 19094 ft 389 kts 224°
2026-05-05 12:51 50.87514 13.86964 19674 ft 392 kts 224°
2026-05-05 12:51 50.85558 13.84013 20249 ft 395 kts 224°
2026-05-05 12:51 50.83576 13.81021 20819 ft 398 kts 224°
2026-05-05 12:51 50.81558 13.77946 21360 ft 402 kts 226°